Weather in Staroye Eshtebenkino

Russia / Samara Oblast     54°35′30″N   51°10′13″E
temp.,
°C
wind,
m/s
gust,
m/s
humid.,
%
clouds,
%
prec.,
mm/h
press.,
hPa
HPBL,
m
25 february, thu
thu2501:00−29nnw12980 0.0 103419
04:00−29wnw12995 0.0 103519
07:00−29sw129923 0.0 103419
10:00−25s239429 0.0 1033102
13:00−20s4789100 0.0 1030261
16:00−19s61187100 0.0 1027362
19:00−19s71396100 0.4 1024423
22:00−18s71295100 1.1 1022567
26 february, fri
fri2601:00−18sse71293100 0.3 1020487
04:00−18sse7139299 0.4 1020430
07:00−19se7129399 0.0 1018365
10:00−17se7119299 0.0 1018401
13:00−14se61090100 0.0 1017507
16:00−13sse61090100 0.1 1017600
19:00−14sse71391100 0.0 1014484
22:00−14sse91692100 0.1 1010436
27 february, sat
sat2701:00−12sse101893100 2.1 1004460
04:00−10sse81593100 6.3 1001457
07:00−7sse6995100 0.5 999262
10:00−4s4697100 1.3 998193
13:000wsw4899100 1.1 998404
16:000wsw4797100 1.3 998489
19:00−1sw3698100 0.3 998269
22:00−1sw4798100 0.7 999300
28 february, sun
sun2801:00−3sw349893 0.3 999101
04:00−2ssw229896 0.5 100082
07:00−4w129896 0.6 100122
10:00−7n359695 0.9 1003165
13:00−8n569589 0.2 1005264
16:00−9n589494 0.3 1006351
19:00−11n599497 0.2 1009334
22:00−14n489590 0.3 1011204
1 march, mon
mon101:00−15n499689 0.1 1013265
04:00−19n479783 0.1 1015146
07:00−21n489752 0.0 1017155
10:00−19n479549 0.0 1019252
13:00−17nnw469372 0.0 1020318
16:00−15nnw479381 0.0 1021363
19:00−19nw349891 0.0 102243
22:00−21wnw2210073 0.0 102320